Track GLOBALSTAR M031 now! 10-day predictions GLOBALSTAR M031 is classified as:
1 25946U 99058D 21109.70749229 -.00000066 00000-0 24465-3 0 9997 2 25946 51.9995 21.8029 0001579 2.7594 32.2666 12.15969741979800